Tracking 28790 objects as of 19-Apr-2024
HD Live streaming from Space Station
objects crossing your sky now

RADUGA 4

Track RADUGA 4 now!
RADUGA 4 is classified as:


NORAD ID: 10987
Int'l Code: 1978-073A
Perigee: 35,777.6 km
Apogee: 35,854.3 km
Inclination: 6.8 °
Period: 1,437.2 minutes
Semi major axis: 42186 km
RCS: 1 m2 (large)
Launch date: July 18, 1978
Source: Commonwealth of Independent States (former USSR) (CIS)
Launch site: TYURATAM MISSILE AND SPACE COMPLEX (TTMTR)
Your satellite tracking list
Your tracking list is empty




NASA's NSSDC Master Catalog

Two Line Element Set (TLE):
1 10987U 78073A   24109.54926977 -.00000101  00000-0  00000-0 0  9998
2 10987   6.7883 288.2069 0009083  21.8707 171.1415  1.00192663111684
Source of the keplerian elements: AFSPC